Theta_e
326 328 329 330 330 329 329 329 328 327 328 329 328 330 332 332 332 329 326 323 321 322 323 323 325 324 324 324 321 322 322 318 317 318 318 320 320 319 319 319 320 321 321 321 320 320 319 319 319 319 319 318 318 318 317 318 318 318 319 319 319 318 318 319 318 319 320 320 321 322 322 321 320 320 320 319 317 315 313 312 312 313 313 313 314 315
326 330 329 327 328 327 327 327 327 328 329 328 327 331 332 332 331 327 322 321 319 321 326 325 324 324 323 323 321 320 321 318 316 316 316 317 318 318 318 318 319 319 320 321 322 321 320 319 320 321 321 320 319 318 317 317 316 316 317 317 318 318 318 317 317 317 317 317 317 317 318 319 319 320 320 319 319 318 316 314 313 313 314 314 314 315
327 329 327 325 326 325 325 326 326 328 328 328 327 330 333 333 331 325 320 320 320 322 330 330 325 324 324 325 323 320 321 321 320 320 319 318 318 318 318 318 318 318 320 321 321 320 319 318 319 320 321 320 319 318 318 316 316 316 316 316 316 317 317 316 316 316 316 316 316 316 316 316 318 318 319 319 319 319 319 317 316 315 314 315 315 316
328 327 325 324 325 325 325 325 326 327 327 328 328 329 334 334 332 329 323 320 321 323 327 327 324 323 322 322 322 320 321 322 323 323 322 321 321 320 320 320 320 319 319 320 319 319 318 317 317 318 319 318 318 319 318 317 317 316 315 315 315 315 316 316 316 316 315 316 317 317 318 317 318 319 320 321 320 320 320 319 318 317 316 315 315 315
327 325 323 324 324 325 326 325 326 327 327 328 328 330 333 332 330 331 326 321 321 325 323 322 326 328 325 324 322 319 319 320 322 323 323 322 322 321 322 321 321 321 320 320 320 319 319 318 318 318 318 316 317 317 317 316 316 316 315 315 315 315 315 315 315 315 315 316 318 319 320 320 320 320 321 321 320 319 319 318 318 317 317 317 316 315
325 324 324 324 324 325 326 326 326 327 327 328 328 329 332 332 331 329 325 322 326 331 326 322 329 335 333 329 325 322 321 321 320 319 321 322 322 321 321 321 320 320 321 321 321 321 320 320 320 320 319 317 316 316 316 316 315 315 315 315 315 315 315 315 315 315 316 316 317 318 318 319 319 318 318 317 316 315 316 316 316 316 317 317 317 317
324 324 324 324 325 327 327 327 326 326 327 328 329 329 329 331 333 331 327 326 331 333 327 322 328 333 332 328 326 325 323 323 322 319 319 321 321 322 321 321 321 320 321 320 320 321 320 320 320 320 320 319 318 317 317 316 316 316 316 316 316 316 315 315 315 316 317 317 317 317 317 316 316 315 314 313 314 314 314 315 316 316 317 317 317 318
324 324 325 325 325 327 327 326 326 325 327 329 330 330 329 329 332 334 333 332 332 331 328 327 327 329 330 327 326 327 325 325 324 322 320 319 320 322 322 322 323 322 322 321 321 321 320 320 320 320 320 320 320 320 318 317 317 316 316 316 316 317 316 316 316 316 317 317 316 317 317 316 316 315 314 314 315 315 315 315 315 316 317 317 318 319
323 324 325 324 325 325 324 325 325 325 327 328 329 329 328 329 332 335 336 333 329 328 330 329 326 327 332 330 326 326 328 327 326 325 323 319 320 322 322 323 323 323 323 322 321 321 320 320 320 319 320 320 320 320 320 319 317 316 317 317 317 317 317 317 317 317 317 317 317 318 318 317 315 315 315 316 317 316 316 316 315 315 316 317 318 319
321 323 323 323 324 323 323 325 325 327 327 325 325 327 326 327 330 332 333 332 329 328 329 329 326 326 331 333 327 324 329 327 323 325 322 319 321 321 322 322 322 323 323 323 322 321 320 320 319 319 319 319 319 319 319 319 317 317 317 318 318 317 317 317 317 317 316 317 318 319 318 317 316 316 317 318 317 317 317 316 315 315 315 316 316 317
320 321 322 322 323 322 323 324 325 326 324 323 324 325 325 326 329 331 331 331 331 328 327 328 328 325 329 336 330 323 329 329 323 325 324 320 321 321 322 322 322 322 322 322 321 320 320 319 318 318 318 318 319 318 318 317 317 317 317 318 318 317 317 317 317 317 316 317 318 317 317 317 316 317 318 318 317 316 317 316 315 315 315 315 315 315
321 322 322 322 321 321 323 325 324 323 322 325 327 326 325 327 330 331 328 328 330 328 327 327 327 324 326 334 333 324 328 330 326 328 328 322 319 319 321 321 321 321 320 320 320 319 319 318 317 317 317 317 318 317 317 317 316 316 316 317 317 316 316 316 316 317 317 317 317 316 316 316 316 317 318 317 316 316 317 316 316 316 315 315 315 315
323 324 323 322 321 321 325 326 324 323 323 325 326 326 328 328 328 329 326 325 327 326 325 324 324 325 325 328 329 325 325 325 323 323 323 319 317 317 318 318 319 319 319 319 318 317 316 315 315 315 315 316 316 316 316 316 316 315 316 315 315 316 315 315 315 316 317 317 316 315 315 315 316 317 318 318 317 317 317 317 317 317 317 316 315 315
324 325 323 322 321 321 323 325 324 324 324 324 323 326 329 327 326 328 324 324 327 325 323 321 321 326 325 324 325 324 322 321 319 318 319 318 318 318 317 316 316 316 317 317 316 316 315 314 314 314 314 314 314 314 314 314 315 314 315 315 314 315 314 314 315 315 316 316 315 316 316 316 316 316 316 317 317 316 317 317 317 317 317 317 317 316
325 326 324 323 323 322 323 323 324 324 323 323 324 326 328 326 326 328 325 326 328 323 320 318 321 327 327 325 323 319 317 317 317 318 319 318 318 318 317 316 315 314 315 316 315 316 316 315 314 313 314 314 313 313 313 313 313 313 313 313 313 313 313 314 314 314 315 315 314 316 316 316 316 316 316 316 317 317 317 319 320 320 320 319 319 319
326 326 323 321 321 322 323 322 321 323 324 324 324 326 327 325 328 329 325 326 327 323 321 321 324 327 325 323 320 315 316 317 315 316 317 318 318 317 317 315 313 313 314 315 315 315 315 315 313 313 314 314 313 312 312 312 312 312 312 312 312 312 312 312 312 313 313 313 313 314 314 315 315 316 316 316 317 318 319 321 322 322 322 322 322 322
325 324 321 320 321 321 322 321 320 322 325 325 324 326 325 325 331 331 324 322 324 324 324 322 325 327 324 322 321 320 322 322 317 315 314 316 317 316 315 314 312 312 313 313 313 313 313 313 312 312 312 312 312 312 312 311 311 312 311 311 312 312 312 312 311 311 311 311 312 312 313 314 315 317 317 317 317 318 319 321 321 321 321 322 322 323
324 323 320 321 323 321 319 320 319 320 322 325 325 324 323 325 330 330 326 324 324 325 325 322 323 326 325 325 325 322 322 323 321 318 313 313 316 315 313 313 311 311 311 311 312 311 311 311 311 312 311 311 312 311 312 311 311 312 312 312 312 311 312 311 311 311 311 311 311 311 311 312 314 315 315 315 315 315 316 316 316 318 319 320 322 324
323 323 319 319 322 321 320 321 322 321 319 322 323 322 324 327 326 326 327 328 325 325 328 325 322 325 325 325 326 323 321 322 321 320 317 314 314 313 312 311 311 311 311 311 311 311 311 311 311 312 311 311 311 311 311 312 312 312 312 312 312 312 312 312 312 311 311 311 311 311 311 311 312 312 312 312 313 313 313 313 314 317 318 319 322 324
322 324 322 319 319 321 323 322 324 323 319 319 321 320 324 328 326 325 326 327 326 325 328 327 325 328 327 324 325 324 323 322 320 321 320 314 313 313 312 311 310 311 311 311 311 311 311 311 311 311 312 312 311 311 311 311 311 311 312 312 312 312 312 312 312 312 312 312 312 312 312 312 312 312 311 311 312 312 312 313 315 317 318 320 322 323
320 323 324 319 317 320 324 323 323 324 320 320 322 322 323 324 324 325 325 326 328 328 329 328 325 330 332 324 321 321 323 323 320 321 319 313 312 313 311 310 311 311 311 311 311 311 311 311 311 311 312 312 312 311 310 310 311 310 311 311 311 312 312 312 312 312 312 312 312 312 312 312 312 311 312 311 311 312 312 312 313 314 317 320 322 323
320 322 322 319 318 320 323 322 321 322 321 321 322 322 322 322 322 324 324 325 326 327 331 329 323 328 333 325 319 318 321 321 318 318 316 311 311 312 311 311 312 311 311 312 311 312 312 311 311 312 312 312 312 312 310 310 311 311 311 311 312 312 312 312 312 312 312 312 312 312 312 312 312 312 312 312 311 311 311 311 311 312 314 317 319 320
320 321 320 319 319 320 319 317 317 320 321 321 321 321 321 321 321 322 323 325 325 324 327 327 323 325 329 325 321 318 317 317 316 315 313 311 311 312 311 311 311 311 312 312 312 312 311 311 311 311 312 312 312 312 311 311 311 311 311 311 311 311 311 311 311 311 311 311 311 312 312 312 312 312 312 312 311 311 311 311 311 311 312 312 313 315
319 320 319 318 318 317 317 316 315 318 321 321 321 321 321 321 320 321 323 324 326 325 324 325 323 325 329 327 318 313 313 313 314 315 313 311 311 311 311 312 311 311 312 312 312 312 311 311 311 311 311 311 312 312 312 311 311 311 311 311 311 311 311 311 311 311 311 311 311 311 311 311 312 312 312 312 312 311 311 311 310 310 310 311 311 313
320 321 319 319 319 318 319 319 317 318 319 320 321 320 321 321 320 322 323 322 325 325 323 324 323 323 328 326 315 313 316 314 312 314 314 312 311 311 312 312 312 311 312 312 312 312 311 311 311 311 311 311 311 312 312 312 312 311 311 311 311 311 311 311 311 311 311 311 311 311 310 310 310 311 312 312 312 312 311 311 310 310 310 310 311 311
321 321 320 320 321 321 322 322 321 320 319 320 321 319 320 321 320 321 321 321 323 323 322 323 322 319 321 321 316 316 319 317 313 312 313 312 312 312 312 312 312 312 312 312 312 312 312 311 311 311 311 311 311 311 311 311 311 311 311 311 311 311 311 311 311 311 311 311 311 311 311 310 310 310 311 311 312 312 312 311 310 310 310 310 310 310
319 319 320 320 321 321 321 322 322 321 320 320 321 320 320 320 320 320 320 321 322 321 321 323 321 320 320 318 317 317 319 320 316 312 311 312 312 312 312 312 312 312 312 312 312 312 312 311 311 311 311 311 311 311 311 311 311 311 311 311 311 311 311 311 311 311 311 311 311 311 311 311 310 310 310 310 311 311 312 312 312 311 310 309 309 310
318 318 319 320 321 321 322 322 321 320 320 319 320 320 319 320 320 321 321 321 320 321 321 321 319 321 320 317 317 318 318 319 315 311 311 313 312 312 312 312 312 312 312 312 312 312 312 312 311 311 311 311 311 311 311 311 311 311 311 311 311 311 311 311 311 311 311 310 310 311 311 311 311 311 310 310 310 310 311 312 312 312 311 310 309 309
317 317 317 318 319 319 321 322 321 320 320 319 319 320 319 319 320 320 320 320 320 320 320 320 320 320 318 317 318 316 313 313 312 311 313 314 314 313 313 312 311 312 312 312 313 312 312 312 312 311 311 311 311 311 311 311 311 311 311 311 311 311 311 310 311 311 310 310 310 310 310 310 311 311 311 310 310 310 310 311 312 312 312 311 310 309
316 316 314 315 317 318 318 319 319 319 320 319 319 319 319 319 319 320 320 320 320 320 319 319 320 320 318 318 318 315 312 310 310 311 312 312 313 313 313 313 312 311 311 312 313 313 312 313 312 312 312 311 311 311 311 311 311 311 311 311 311 311 311 311 311 311 311 311 311 310 311 310 310 310 310 310 310 310 310 310 312 312 312 311 310 309
317 317 313 313 316 317 318 318 319 319 320 320 319 319 319 319 319 319 320 320 320 320 319 319 320 319 317 316 316 313 311 311 310 310 310 311 313 313 313 313 313 312 312 311 312 313 313 313 313 312 312 311 311 311 311 311 311 311 311 311 311 311 311 311 311 311 311 311 311 311 311 311 310 310 310 310 310 310 310 310 311 312 312 311 310 309
316 316 313 314 317 318 318 318 318 318 319 319 319 319 318 319 319 319 319 319 320 320 320 320 320 319 317 316 316 314 311 309 309 310 310 311 312 313 312 313 313 313 312 312 311 312 313 313 313 313 312 312 311 311 311 311 311 311 311 311 311 311 311 311 311 311 311 311 311 311 311 311 310 310 310 310 310 310 310 309 310 311 312 311 311 310
315 315 314 315 318 319 318 317 316 317 318 319 318 318 318 318 318 319 319 319 319 319 320 320 319 319 320 319 318 318 315 311 309 310 311 312 312 312 312 312 313 313 312 312 311 311 313 313 313 313 312 312 312 311 311 311 311 311 311 311 311 311 311 311 311 311 311 311 311 311 311 311 310 310 310 310 310 310 310 310 310 310 311 311 311 310
315 316 315 315 319 320 317 315 316 317 318 320 319 317 317 318 318 319 319 318 318 318 319 319 318 319 322 320 318 318 316 313 312 313 313 313 313 313 312 312 313 313 312 312 311 311 313 313 313 313 312 312 312 311 311 311 311 311 311 311 311 310 310 310 310 311 310 310 311 310 310 310 310 310 310 310 310 310 310 310 310 310 311 311 311 310
314 315 314 314 318 319 316 315 318 319 319 320 319 317 316 317 317 318 318 317 317 318 318 318 318 319 319 317 316 316 315 315 315 315 314 315 314 314 314 313 314 313 312 311 311 312 313 314 313 313 312 312 312 311 311 311 311 310 311 310 310 310 310 310 310 310 310 310 310 310 310 310 310 310 310 310 310 310 310 309 309 310 310 310 311 310
313 313 313 314 316 317 316 317 320 320 318 318 318 317 316 316 317 318 318 318 317 317 318 318 317 318 316 314 314 315 316 315 315 313 313 314 314 314 315 315 315 314 312 311 311 312 314 314 313 313 313 312 312 312 312 311 311 310 310 310 310 310 310 310 310 310 310 310 310 310 310 309 310 310 309 309 309 309 309 309 309 310 310 310 310 310
313 313 313 314 316 317 317 318 319 320 319 317 317 317 316 316 317 318 319 318 317 316 317 317 317 317 316 314 314 315 315 315 314 314 313 313 313 314 315 315 316 315 313 312 312 313 314 314 313 313 313 313 313 312 311 311 310 310 310 310 310 310 310 310 310 310 310 310 310 310 310 309 309 309 309 309 309 309 309 309 309 309 309 310 310 309
313 314 313 315 316 316 316 318 319 320 321 319 317 316 315 315 316 317 318 319 318 316 316 316 316 316 316 315 315 314 314 316 317 315 314 315 314 314 315 315 315 315 314 313 313 314 314 314 313 313 313 313 313 312 311 311 310 310 310 310 309 309 309 309 310 310 310 310 310 310 309 310 309 309 309 309 309 309 309 309 309 309 309 309 309 309
313 313 313 314 314 314 316 318 318 320 321 320 318 316 314 313 314 317 318 319 318 316 315 315 316 316 316 315 314 313 315 317 317 315 314 316 316 315 315 315 314 314 314 314 313 314 314 314 313 313 313 313 313 312 311 310 310 310 310 309 309 309 309 309 310 310 310 310 310 310 309 309 309 309 309 309 309 309 309 309 309 309 309 309 309 309
313 312 312 313 313 312 314 316 318 318 319 320 320 316 313 313 314 318 319 320 317 315 315 315 315 315 315 314 313 313 315 316 316 315 314 315 316 316 316 316 316 315 314 314 314 314 313 313 314 313 313 313 312 311 310 310 310 310 309 309 309 309 309 309 309 309 310 309 310 310 309 309 310 309 309 309 309 309 309 309 309 309 309 309 309 309
313 312 312 313 313 312 313 315 317 318 318 320 319 313 311 314 316 318 320 319 315 314 314 314 314 314 314 313 312 313 314 315 315 315 314 314 316 316 316 316 316 315 315 315 315 314 314 314 313 313 313 313 311 310 310 310 309 309 309 309 309 309 309 309 309 309 310 309 309 309 309 309 309 309 309 309 309 309 309 309 309 309 309 309 310 310
313 312 312 313 313 313 314 315 316 317 318 319 315 310 311 316 317 317 318 316 314 314 314 314 314 314 313 313 312 313 314 314 315 315 314 314 315 315 316 315 315 314 315 315 314 314 314 313 313 313 313 311 310 310 310 310 309 309 309 309 309 309 309 309 309 309 309 309 309 309 309 309 309 309 309 309 309 309 309 309 309 309 309 310 310 310
314 313 313 313 314 315 315 315 316 317 317 315 312 311 313 316 317 315 314 315 315 315 315 315 314 314 314 313 313 314 314 315 315 314 314 314 314 315 315 315 314 314 314 314 314 313 313 313 313 313 311 310 309 310 309 309 309 309 309 309 309 309 309 309 309 309 309 309 309 309 309 309 309 309 309 309 309 309 309 309 309 309 309 310 310 310
313 314 314 313 314 315 315 315 317 318 315 312 313 314 314 314 315 314 314 314 314 314 315 315 315 314 314 313 314 314 314 315 314 314 313 313 314 314 314 314 314 314 313 313 313 313 313 313 312 311 310 309 309 309 309 309 309 309 309 309 309 309 309 309 309 309 309 309 309 309 309 309 309 308 308 309 309 309 309 309 309 309 309 309 309 309
313 313 314 314 314 315 315 315 316 315 312 312 314 315 313 313 314 314 314 314 313 314 315 315 315 315 314 314 315 314 314 314 314 313 313 313 313 314 314 314 313 313 313 313 313 312 312 312 311 310 309 309 309 309 309 309 309 309 309 309 309 309 309 309 309 309 309 309 309 309 309 309 309 309 309 309 309 309 308 308 308 309 309 309 309 309
313 311 312 314 314 314 314 314 314 313 311 311 313 314 314 314 314 313 313 313 313 315 315 315 315 315 315 315 314 313 314 314 313 313 313 313 313 313 313 313 313 313 313 313 312 312 311 310 309 309 309 309 309 309 309 309 309 309 309 309 309 309 309 309 309 309 309 309 309 308 308 308 308 308 308 309 309 308 308 308 308 308 308 308 308 308
314 311 312 316 316 315 315 314 313 313 312 311 313 314 314 314 314 313 313 312 313 313 313 313 313 314 314 314 313 313 314 314 313 313 313 313 313 313 313 313 312 312 312 312 312 311 310 309 309 309 309 309 309 309 308 309 309 308 309 309 308 309 309 309 309 308 308 308 308 308 308 308 308 308 308 308 308 308 308 308 308 308 308 307 307 307
313 311 313 316 315 314 315 314 312 312 312 312 313 313 313 313 313 313 312 312 313 313 312 312 311 312 312 313 313 314 314 314 313 313 313 312 312 312 312 312 312 312 311 311 310 310 309 309 309 309 309 309 309 308 308 308 308 308 308 308 308 308 308 308 308 308 308 308 308 308 307 307 307 307 307 307 307 307 307 307 306 306 306 306 305 305
312 312 314 316 315 314 314 314 313 313 313 313 312 312 312 313 313 313 313 313 313 314 313 312 311 311 312 312 313 313 314 314 314 314 313 312 312 311 312 312 311 311 310 310 309 308 308 309 309 309 309 308 308 308 308 308 308 308 308 308 307 307 307 307 307 307 307 307 307 307 307 306 306 306 306 306 306 305 305 305 305 305 304 304 304 303
311 312 314 315 315 314 314 314 314 314 314 313 312 312 313 314 313 313 313 313 313 314 313 312 312 312 312 312 311 312 312 313 313 313 312 312 311 311 311 311 310 310 309 309 308 308 308 308 308 308 308 308 308 308 308 307 307 307 307 307 307 307 307 307 306 306 306 306 306 306 305 305 305 305 305 304 304 304 304 303 303 303 303 303 302 302
311 313 313 313 314 314 313 312 312 313 313 313 313 313 313 314 314 313 313 314 314 314 314 314 313 312 313 313 311 311 312 312 312 312 311 311 311 310 310 310 309 309 309 308 308 308 308 308 308 308 308 308 307 307 307 307 307 307 307 307 306 306 306 306 306 306 306 305 305 305 305 304 304 304 304 303 303 303 302 302 302 302 301 301 301 300
Wind_Speed
15 7 6 10 11 11 11 11 7 5 9 9 7 5 6 5 5 5 4 6 10 8 8 9 9 10 12 8 12 22 22 18 20 21 24 27 27 27 27 27 29 31 31 26 24 23 23 23 24 25 25 24 24 24 24 25 26 27 27 28 27 26 26 27 28 28 29 30 32 34 36 37 36 34 34 33 33 32 32 32 32 33 33 32 31 30
12 9 12 13 11 13 12 10 10 8 6 6 5 5 5 6 5 5 3 3 4 4 5 6 7 10 10 7 12 19 15 14 21 23 24 28 29 28 27 27 28 29 29 27 26 25 24 25 26 27 28 28 28 27 27 27 27 27 27 28 28 27 27 28 28 28 29 30 30 32 34 35 36 36 35 35 34 34 33 33 33 34 34 34 33 33
8 11 14 14 11 12 11 10 11 9 6 5 4 4 3 5 4 2 3 2 2 2 5 3 5 9 9 8 11 14 12 15 24 27 28 31 30 30 30 29 29 29 29 29 29 28 27 26 27 28 29 30 29 29 29 28 27 27 28 28 28 28 29 29 29 29 29 29 28 28 30 32 34 35 36 36 36 35 35 35 35 36 37 37 37 36
8 11 14 15 13 13 10 10 10 7 6 5 4 5 3 4 4 1 3 2 1 3 3 2 4 7 7 8 9 16 21 22 26 29 30 33 33 33 34 33 33 32 32 32 32 32 30 28 28 29 29 29 30 30 30 30 29 29 29 28 29 29 29 29 29 29 29 28 27 27 28 29 31 33 35 36 38 38 38 38 38 38 39 40 40 40
6 8 16 15 11 12 11 10 10 6 5 5 5 5 4 3 4 3 2 2 1 3 1 3 5 6 6 8 9 13 20 23 26 28 29 31 32 32 34 35 35 35 34 35 35 34 33 32 32 32 31 30 30 30 30 29 29 30 29 29 29 29 29 29 29 28 28 29 29 29 29 30 32 33 35 38 40 40 40 39 39 39 40 41 42 42
6 13 21 16 11 12 11 10 11 8 5 5 7 6 7 6 3 2 3 3 2 5 3 2 2 6 4 6 8 7 7 12 17 21 26 31 30 30 32 34 35 35 35 35 35 35 35 35 35 34 34 33 33 32 30 28 28 28 28 28 28 29 29 29 29 29 29 31 31 31 32 32 33 34 36 37 37 38 37 37 37 38 39 40 41 42
4 14 18 13 13 12 8 9 11 10 6 4 6 7 8 6 6 6 4 2 2 4 3 3 3 6 6 6 8 8 7 9 11 12 19 28 30 32 34 35 35 36 36 36 35 34 35 36 36 37 36 36 36 34 32 30 29 28 27 27 28 28 28 28 29 31 31 32 32 33 34 34 34 34 34 33 33 34 35 35 36 37 38 40 41 42
9 16 14 13 14 10 8 8 9 10 7 4 5 8 8 6 6 7 6 3 2 2 4 3 3 3 6 6 7 8 9 12 12 11 13 21 27 31 34 35 36 36 36 37 36 35 34 35 36 37 37 37 36 34 32 33 32 30 29 28 28 29 28 28 29 31 33 33 34 34 35 35 35 34 33 32 32 33 33 34 35 35 37 38 40 42
14 17 15 15 13 8 9 8 8 11 6 3 4 7 7 6 5 6 6 3 1 2 4 3 2 2 6 6 5 5 8 11 13 12 12 18 25 28 31 32 33 34 35 35 35 34 34 34 35 36 36 35 34 32 31 32 32 31 31 30 30 30 29 29 30 31 32 33 34 35 36 36 36 35 34 33 34 34 34 35 35 35 36 37 39 41
10 18 20 16 10 8 9 7 9 12 5 2 6 8 6 5 7 6 5 4 3 2 5 4 3 3 5 7 5 2 5 11 11 9 11 19 25 27 29 31 30 30 32 32 32 31 30 31 32 33 33 33 32 30 29 29 30 31 32 32 32 30 29 30 31 31 31 32 35 36 36 37 36 36 36 36 36 35 36 37 36 36 36 36 37 39
5 20 21 12 10 10 9 7 10 13 9 7 8 9 7 6 6 4 3 5 2 4 6 7 7 5 4 6 5 4 6 8 8 7 9 15 21 24 25 29 31 31 30 29 28 27 26 25 25 26 29 30 30 29 29 29 30 31 31 31 31 30 29 30 31 32 32 33 35 35 36 36 36 36 37 38 37 37 37 38 38 37 37 37 38 38
6 15 12 8 14 14 10 5 4 10 13 9 5 6 6 3 4 4 4 3 2 5 5 7 8 7 6 6 5 6 7 6 6 7 7 7 8 9 12 16 21 24 25 25 25 24 22 20 19 20 23 25 27 28 30 31 31 31 30 30 30 29 29 30 31 32 33 34 35 34 35 35 35 36 38 38 38 38 39 39 39 39 39 39 39 39
6 7 3 6 12 13 11 4 2 5 8 7 5 7 6 1 2 1 1 1 4 6 4 3 4 5 8 7 7 10 10 9 9 8 7 9 10 10 8 8 9 12 15 17 19 18 17 15 15 16 17 20 24 26 27 28 29 30 30 30 30 28 27 28 30 31 32 34 34 33 34 35 35 37 38 39 38 38 39 40 40 40 41 41 41 41
4 2 1 7 6 11 14 9 5 5 7 8 8 8 6 4 3 3 3 1 4 5 3 2 3 3 4 5 11 17 16 13 11 9 6 8 9 8 7 7 7 9 13 15 16 16 15 14 15 16 16 18 21 23 23 24 25 27 28 29 29 27 26 26 28 30 31 33 33 33 34 34 35 37 37 38 38 38 39 40 41 41 41 42 42 42
9 2 6 9 6 11 13 9 8 6 5 7 6 6 6 5 5 5 4 3 4 3 2 2 2 4 3 3 9 15 18 14 9 12 12 9 8 7 6 6 8 10 14 16 18 19 18 17 17 18 18 19 21 22 23 23 24 25 27 27 28 26 25 26 27 29 30 31 31 32 34 34 35 36 37 38 38 38 39 40 41 41 42 43 44 44
10 4 7 8 6 14 13 6 9 9 3 2 3 5 4 4 4 2 3 5 4 1 1 2 3 4 4 6 9 9 13 13 10 12 15 14 11 8 8 9 10 13 15 16 18 19 19 19 18 18 18 19 20 21 22 23 23 24 23 23 24 23 22 23 25 26 27 28 29 31 32 33 34 36 37 37 38 38 39 40 41 42 42 43 44 44
8 3 4 4 2 10 14 10 12 14 7 2 5 7 4 4 6 4 2 0 3 2 3 3 4 5 3 6 10 9 9 10 9 9 12 15 13 9 9 10 12 14 14 14 14 14 14 15 15 14 15 16 16 17 18 19 20 20 20 20 20 19 19 21 22 23 24 25 27 29 30 32 33 35 36 37 37 38 39 40 41 42 42 43 43 44
6 3 2 3 3 5 12 14 10 7 6 5 7 7 4 3 3 4 1 2 2 3 3 3 6 4 2 5 5 7 10 9 7 7 10 12 12 11 10 11 13 13 12 12 12 12 11 11 11 11 11 12 12 13 13 14 15 15 16 17 18 18 18 19 20 21 22 24 26 27 28 30 32 33 35 35 36 36 37 38 39 40 42 42 42 43
5 4 3 2 4 3 8 13 6 4 1 5 7 7 6 2 2 3 3 2 2 4 4 3 5 4 5 6 2 5 11 11 8 7 8 9 12 14 13 13 14 14 16 16 16 15 13 12 10 9 9 9 9 9 10 10 11 12 13 14 14 15 15 16 18 19 20 21 22 23 24 25 27 28 30 31 32 34 36 37 38 39 40 41 42 42
5 5 1 2 2 3 4 6 8 5 3 3 6 6 5 2 3 5 3 3 4 3 4 3 3 4 7 7 7 9 11 11 10 9 8 10 15 18 18 19 19 20 20 19 17 14 12 11 9 8 8 7 6 6 7 8 9 10 11 12 12 12 13 13 14 15 15 16 17 18 19 20 22 23 25 27 29 32 34 35 36 37 38 38 39 39
3 3 4 1 1 3 4 6 11 13 8 6 8 8 5 2 2 2 2 2 4 3 4 3 4 6 6 5 9 12 11 11 12 10 8 12 18 22 24 24 23 22 20 17 15 12 10 9 8 7 7 6 6 6 6 7 8 9 9 9 9 9 9 10 10 11 12 13 14 16 16 17 18 20 21 24 26 28 30 31 33 34 35 35 36 36
3 2 5 5 3 5 8 6 6 11 12 9 9 10 9 6 4 3 4 2 3 4 4 4 5 7 5 4 8 11 9 8 12 11 9 15 23 26 27 26 24 22 20 16 14 12 10 9 8 7 7 7 7 6 6 5 5 6 6 6 6 6 6 7 8 9 11 12 13 14 14 15 16 17 19 20 22 24 25 27 29 31 32 34 35 35
3 4 6 5 5 5 4 2 1 4 6 4 3 6 7 5 5 5 7 4 3 4 3 2 4 7 5 4 6 9 9 11 17 17 15 19 27 29 27 25 23 21 19 16 13 12 10 9 8 8 8 8 7 6 5 4 4 4 4 4 4 4 5 6 8 10 11 12 13 14 14 15 15 16 17 18 20 21 22 23 25 27 29 31 32 33
3 4 5 3 1 1 3 2 3 2 4 4 1 4 7 9 9 6 5 4 4 5 3 2 6 7 5 4 3 6 9 12 18 22 21 22 27 29 28 26 24 22 20 16 13 11 10 9 9 9 9 8 7 7 6 6 6 6 5 5 5 5 6 8 9 11 12 13 14 15 16 16 16 16 17 17 18 19 19 21 22 23 26 28 30 31
3 4 6 5 3 1 1 1 1 1 3 6 7 8 11 14 12 5 1 3 3 6 7 6 8 8 4 3 3 3 5 7 12 20 25 25 27 30 29 27 25 24 21 18 14 12 10 9 9 9 8 8 8 8 8 7 7 7 6 7 7 8 8 9 10 11 12 13 14 15 16 16 16 17 17 17 18 19 19 20 20 21 23 25 27 28
4 4 7 9 9 10 9 10 9 7 6 5 7 13 14 16 16 9 3 3 4 5 6 6 9 8 4 0 2 3 4 5 7 13 20 25 30 33 31 28 27 25 22 19 16 12 10 9 9 9 9 9 9 9 9 9 7 7 7 8 9 9 10 10 11 12 13 14 14 15 15 15 16 17 18 18 18 19 19 19 20 21 21 23 25 26
1 3 8 10 12 12 11 10 9 10 8 6 10 17 16 13 14 10 5 6 8 4 4 9 15 13 9 5 2 2 5 7 7 10 15 21 27 33 34 31 28 26 23 20 16 13 11 10 9 9 9 8 9 9 9 9 8 8 9 10 11 12 12 13 14 15 15 16 16 16 16 16 16 17 18 19 19 19 19 19 19 20 20 21 22 24
3 3 8 9 10 7 3 5 9 13 15 17 18 20 17 13 14 13 12 14 11 5 6 16 19 18 14 7 7 8 9 8 7 11 18 23 28 34 36 33 30 26 22 20 18 14 12 11 10 9 8 8 9 9 9 9 10 11 12 13 13 14 15 16 17 17 18 18 18 18 18 18 18 18 18 19 19 19 19 19 19 19 19 20 20 22
3 3 7 8 10 5 2 8 13 13 15 17 19 21 21 20 20 19 19 21 15 9 14 22 17 17 17 9 9 10 10 11 15 20 25 26 29 32 32 33 33 30 25 22 19 16 13 12 10 8 7 7 7 8 8 9 11 13 14 15 15 16 17 18 18 19 20 20 20 20 20 20 19 19 19 19 20 20 20 20 20 20 19 19 19 20
3 3 5 6 9 8 3 6 12 14 13 12 15 19 20 21 22 22 23 23 18 14 20 23 15 15 16 9 9 14 18 20 21 21 21 23 26 28 29 32 35 35 33 28 22 17 14 12 10 7 5 5 7 8 8 10 13 14 16 17 17 18 18 18 18 19 20 21 22 22 22 21 21 21 20 20 21 21 21 21 21 21 20 19 18 18
5 4 5 5 7 8 6 5 8 14 15 15 17 19 18 19 20 21 21 20 16 18 24 21 15 15 13 8 10 16 20 19 15 14 18 23 28 29 29 33 35 37 38 34 27 19 14 13 11 8 6 7 8 9 10 12 14 16 17 18 18 18 17 17 17 18 19 21 22 23 23 22 22 22 21 21 21 22 22 22 21 21 20 19 18 18
6 4 5 5 4 6 8 9 10 12 13 14 16 16 17 18 19 20 22 20 17 18 21 17 14 15 9 8 9 11 13 13 13 17 23 27 30 32 33 35 36 39 40 38 34 26 17 15 13 8 7 9 10 11 12 14 16 17 18 17 16 15 15 15 16 16 18 19 20 22 22 21 21 21 22 22 22 22 22 22 22 21 21 19 18 18
8 6 4 5 5 6 9 11 9 7 8 10 13 19 23 24 24 22 21 19 18 17 16 15 16 13 5 8 10 9 9 11 15 23 28 30 33 35 36 37 37 38 40 41 39 30 21 16 13 10 10 10 11 13 14 15 16 17 16 15 14 13 13 14 14 15 16 17 19 19 20 20 19 20 21 21 22 22 22 22 22 21 21 20 19 18
8 9 5 5 6 6 8 10 6 6 10 11 13 22 27 27 25 23 20 20 20 18 16 15 16 10 5 8 11 11 13 18 26 33 36 34 35 36 36 37 37 36 39 42 39 30 22 17 14 13 13 12 12 13 14 15 16 15 13 13 12 12 13 13 14 14 15 16 17 18 18 18 18 18 19 20 21 21 21 21 21 21 20 20 19 18
5 8 5 4 5 3 7 9 5 8 12 8 5 12 18 19 21 22 22 22 22 22 21 21 19 11 6 9 14 16 23 30 35 40 41 39 39 38 37 36 34 35 39 40 36 29 24 20 18 17 15 13 12 13 15 16 15 13 12 11 11 12 13 13 13 13 14 14 15 16 16 17 17 17 17 18 19 19 20 20 20 20 19 19 19 18
2 3 2 3 3 2 4 7 6 5 4 1 3 8 12 14 16 17 19 22 23 23 21 21 20 14 10 14 18 21 26 29 29 35 40 41 41 40 37 34 33 36 40 39 35 30 25 22 20 18 16 14 14 14 15 16 15 13 12 11 12 12 12 12 12 12 13 14 14 14 15 15 15 15 15 16 16 17 18 18 19 19 19 18 18 18
8 3 2 1 2 2 3 6 4 2 3 1 4 10 15 18 18 16 15 19 18 17 17 18 20 18 17 21 24 23 19 14 14 23 32 38 40 40 39 37 36 38 39 38 33 28 24 22 21 20 18 17 17 16 15 15 14 13 12 12 12 11 11 11 11 11 12 12 13 13 13 13 13 13 13 14 14 15 15 16 16 17 17 17 17 17
10 8 4 1 2 1 1 3 3 2 5 10 12 13 16 16 12 10 8 13 11 16 22 23 22 22 21 22 22 19 12 7 9 16 26 33 35 37 39 40 40 40 39 36 32 27 26 26 25 23 22 20 19 17 15 14 14 13 13 12 11 10 9 9 9 10 10 11 11 11 11 11 11 11 11 12 12 13 13 14 14 14 15 16 15 15
9 8 6 4 4 2 1 4 3 4 10 11 10 10 11 13 16 14 5 14 13 19 28 27 23 22 22 21 20 15 9 8 12 15 23 30 33 36 41 44 42 41 38 34 32 31 31 29 27 26 24 23 22 19 16 15 15 14 13 12 10 9 8 8 8 8 8 9 9 10 10 10 9 9 9 9 10 10 11 11 12 12 13 13 14 13
9 6 6 6 9 8 5 5 3 4 9 7 4 7 17 25 22 14 6 16 14 18 29 30 26 27 27 22 19 14 10 15 21 19 24 33 40 45 48 49 45 42 39 34 33 33 32 31 30 29 27 26 23 19 17 17 16 14 13 11 9 8 8 7 8 8 7 8 8 8 9 8 8 8 8 8 8 9 9 9 10 11 11 11 12 12
7 5 6 9 10 9 8 6 5 6 9 6 3 12 26 27 15 9 14 15 7 19 32 34 30 31 31 25 20 17 23 37 45 35 26 32 43 49 50 49 46 43 41 39 37 36 35 34 33 31 29 28 24 21 19 18 16 14 12 10 9 8 8 7 8 8 8 8 8 8 8 7 7 8 8 8 9 9 9 9 9 10 10 10 11 11
5 3 4 7 8 7 6 6 5 8 8 9 12 20 27 18 6 13 18 10 10 22 33 39 36 33 30 31 33 35 42 53 60 51 35 33 41 46 47 46 42 38 38 39 40 40 39 37 34 32 30 28 24 22 20 18 16 14 12 10 9 8 8 7 8 8 8 8 8 8 8 7 7 7 7 8 9 8 9 9 9 9 9 10 10 11
7 6 5 6 6 5 3 5 6 10 7 19 20 13 14 11 10 14 12 5 7 18 27 32 36 36 35 38 44 48 51 55 57 53 42 36 36 38 41 41 38 35 35 37 39 39 38 36 33 32 30 28 26 23 20 18 16 14 12 11 9 9 8 8 8 8 8 8 8 8 8 7 7 7 7 8 8 8 9 9 9 10 9 10 10 11
8 8 6 5 6 5 4 8 8 6 7 28 25 10 15 18 13 12 15 12 10 16 21 24 28 32 36 40 44 48 53 54 48 41 34 30 30 31 33 34 33 32 33 35 37 37 35 34 32 31 30 29 26 23 20 18 16 14 12 11 10 9 9 9 9 9 9 9 9 8 8 8 8 8 8 8 8 9 9 9 10 10 10 10 10 11
10 12 9 7 9 8 8 11 9 4 9 28 27 18 26 33 22 12 17 21 16 15 19 23 25 27 31 38 43 47 51 50 44 36 31 29 29 29 30 30 30 30 32 34 35 34 33 32 31 31 31 29 25 22 20 17 15 14 12 11 10 10 10 10 9 9 9 9 9 9 9 9 10 10 9 9 9 9 9 9 10 10 10 10 10 11
11 15 10 6 7 8 10 12 11 8 11 23 24 17 22 35 34 24 18 18 19 20 20 22 26 28 30 36 41 43 45 45 42 37 33 31 31 31 32 31 29 29 31 34 35 33 32 31 30 31 30 27 23 21 19 17 15 13 12 11 11 11 10 10 9 9 9 9 10 10 10 10 10 11 11 10 10 9 9 9 9 9 10 10 10 10
6 11 10 5 6 9 10 11 17 19 15 16 21 23 22 27 33 34 26 17 14 17 17 18 23 25 25 29 34 36 39 41 39 37 34 33 32 33 33 32 31 31 33 34 33 32 32 32 32 30 28 25 23 21 18 17 15 13 12 11 10 11 10 9 9 8 8 9 10 10 10 11 10 11 11 11 10 10 10 10 9 9 10 10 10 10
7 12 10 7 8 11 12 12 17 23 23 23 28 31 28 25 24 27 30 25 17 14 15 16 17 15 14 17 22 27 32 35 35 36 36 35 34 34 34 34 34 34 33 33 32 32 33 33 31 29 26 24 22 20 18 17 15 13 12 11 10 10 9 8 7 7 7 8 9 9 9 10 10 9 9 10 10 10 9 9 9 9 9 9 10 10
13 13 8 7 8 10 13 10 6 9 20 32 37 32 28 26 22 21 27 31 28 23 19 16 15 14 13 13 15 20 25 28 29 32 34 35 36 36 36 36 35 34 32 31 31 32 32 31 29 27 26 24 22 20 18 17 15 13 12 11 10 9 7 6 5 5 5 6 7 7 7 8 8 8 8 8 8 9 8 8 8 9 9 9 9 9
12 9 7 8 10 10 12 13 13 11 12 19 27 31 32 33 28 23 24 29 32 31 27 23 20 20 21 20 17 17 19 21 23 26 29 32 34 36 37 37 36 34 32 32 32 33 32 30 28 27 25 23 22 20 18 16 15 13 11 10 8 7 5 5 4 3 3 4 5 5 5 5 5 6 6 6 7 7 7 8 8 9 9 9 9 10
14 13 12 11 12 15 21 26 25 18 10 8 15 26 35 39 37 32 29 28 30 31 31 32 33 31 30 29 23 19 19 20 22 23 25 28 32 35 37 36 35 34 34 34 35 35 33 30 29 27 24 23 21 19 17 15 14 12 10 9 7 6 5 4 3 2 2 2 2 2 3 3 3 3 4 5 6 6 7 8 8 9 9 9 9 9
Wind_Direction
163 161 199 203 192 189 191 186 208 195 161 181 181 174 181 184 241 233 241 233 181 181 224 215 217 238 246 246 249 252 245 230 227 227 228 229 231 232 233 235 233 231 235 240 240 237 238 239 239 239 238 236 234 234 235 236 238 240 241 242 242 243 245 246 247 246 245 244 243 243 243 243 243 244 244 244 244 243 242 243 244 245 247 245 243 241
165 191 210 202 186 183 185 180 204 220 192 198 182 170 194 192 227 247 244 248 169 177 253 240 236 250 253 250 249 249 243 231 229 229 230 229 229 230 229 230 232 233 235 236 236 236 238 239 238 238 237 235 235 234 234 234 236 239 240 242 244 244 244 246 248 248 248 249 248 248 248 248 248 248 248 249 248 247 246 245 245 246 247 248 246 244
180 213 207 189 177 176 185 185 197 222 216 220 204 160 193 204 206 302 336 348 115 198 266 277 254 258 262 258 256 253 245 239 237 234 234 232 228 227 226 228 230 231 232 231 233 236 237 238 236 236 236 236 237 237 238 237 237 238 240 242 244 244 244 245 248 250 252 253 254 255 255 254 253 253 254 254 253 251 250 248 247 247 248 249 249 247
194 208 188 173 176 177 184 190 192 220 223 217 206 166 200 214 178 229 301 293 206 209 243 328 302 271 265 266 262 255 251 251 248 243 241 238 233 231 231 231 230 229 230 231 233 236 235 234 233 233 236 238 237 237 237 238 238 238 239 241 242 243 244 246 248 251 254 256 256 256 256 255 256 257 256 255 254 252 250 249 248 248 248 249 251 251
186 166 163 166 181 180 179 190 190 205 222 220 210 178 183 192 178 203 206 190 288 309 316 34 331 284 249 255 258 254 251 250 250 248 246 242 238 236 236 234 233 233 234 235 237 237 235 233 233 234 237 238 237 236 237 238 239 240 241 243 244 245 247 248 249 251 252 253 252 251 249 248 248 249 250 250 251 251 250 250 250 250 249 250 252 253
175 149 157 168 183 178 178 192 193 192 202 226 221 187 172 168 139 126 135 110 37 313 292 90 326 287 279 265 263 266 262 257 253 248 247 246 242 239 237 235 234 235 237 239 241 243 241 239 238 237 238 237 236 238 240 242 244 245 246 246 247 248 249 250 249 249 249 249 250 249 247 246 246 247 249 252 256 256 257 258 257 254 252 252 253 255
167 156 157 167 178 178 186 196 194 184 178 222 221 178 167 152 110 105 124 133 188 257 285 100 169 269 307 288 268 277 283 276 267 253 245 246 245 241 239 238 237 237 238 239 242 243 243 242 240 239 239 238 239 241 242 244 245 246 247 247 247 249 250 250 249 247 246 247 248 249 250 251 252 254 257 260 262 262 263 264 261 258 256 255 255 255
156 161 159 164 171 177 194 199 195 177 167 227 212 167 173 178 143 130 119 132 200 252 323 19 133 256 293 268 260 275 281 280 274 266 253 245 243 243 242 240 240 239 239 239 240 241 242 242 242 242 243 243 244 246 247 246 245 245 247 247 247 248 249 250 249 248 247 248 249 249 251 253 255 258 262 264 262 263 263 261 261 260 259 258 256 256
154 167 169 164 165 181 196 200 190 175 175 242 192 152 171 175 141 118 102 103 37 29 299 300 127 219 277 269 278 288 277 272 263 257 256 249 244 243 242 241 240 239 238 238 241 243 244 244 245 246 247 248 248 249 249 250 249 248 248 247 246 247 248 249 249 249 249 250 251 251 252 254 257 261 262 262 261 261 261 260 260 260 259 259 257 257
157 174 170 160 166 187 193 194 180 180 197 185 118 94 92 91 88 90 94 96 41 345 240 226 165 213 275 278 281 287 257 257 256 253 249 250 249 244 240 238 237 237 237 238 241 245 248 250 251 252 250 250 249 248 248 250 252 252 250 248 248 248 249 249 249 249 250 251 251 252 254 256 259 261 261 260 260 260 259 259 260 260 260 260 258 258
140 164 165 166 183 179 169 180 180 178 168 122 100 84 73 54 60 63 58 80 59 286 238 202 188 197 264 276 251 218 230 239 242 253 250 249 253 251 245 240 238 236 237 239 244 247 249 251 253 252 250 249 249 247 246 248 250 251 251 249 249 250 250 250 249 249 250 251 251 254 256 259 262 262 261 260 261 261 260 260 262 263 263 263 262 261
115 153 167 174 180 166 149 171 175 162 150 118 101 108 95 34 29 30 20 67 182 255 250 214 190 186 226 255 247 237 246 238 226 233 234 225 222 227 234 235 235 235 236 240 243 245 243 242 243 243 243 243 244 244 244 246 248 248 249 248 249 249 250 250 250 249 250 250 252 255 258 260 263 262 261 262 263 263 262 263 263 263 264 264 265 264
136 163 186 147 169 165 149 144 62 143 152 122 126 133 118 83 47 43 259 147 225 240 250 217 177 200 233 241 255 267 264 246 242 230 191 170 155 145 155 179 202 217 223 228 231 230 228 231 238 239 237 235 235 238 240 243 245 245 246 247 247 248 249 250 249 249 250 250 253 256 258 260 262 262 262 264 265 264 263 263 263 263 264 264 265 265
145 303 197 142 173 175 163 164 160 172 172 153 152 155 152 142 137 196 217 242 253 246 251 201 179 236 268 245 236 247 251 242 250 258 219 178 171 159 158 175 194 211 216 215 216 219 223 228 233 235 233 229 228 231 234 238 241 243 244 245 247 248 248 248 248 248 248 249 252 255 257 259 260 261 262 263 265 265 265 264 263 264 264 265 266 267
160 200 186 172 181 177 174 176 161 140 148 163 149 142 155 159 167 191 190 197 229 246 268 240 200 199 205 252 234 239 255 258 255 257 248 224 202 192 195 209 221 229 229 226 227 231 234 232 231 233 232 227 226 227 229 233 236 239 241 243 246 247 246 246 246 247 247 249 251 253 255 257 258 260 261 263 265 265 266 265 265 265 265 266 267 269
167 186 193 177 162 171 174 155 130 120 121 213 120 130 186 183 150 149 180 180 162 150 245 213 229 215 201 278 282 263 271 273 257 243 229 212 203 204 214 217 221 229 231 232 234 234 233 231 232 235 233 229 228 228 230 233 235 238 241 243 245 247 246 246 246 248 249 251 253 253 255 257 258 260 261 263 265 266 267 268 268 268 268 268 269 270
173 185 192 156 104 178 174 154 154 156 156 180 158 169 195 155 116 109 210 123 96 179 239 193 242 292 318 286 273 252 258 265 255 240 213 198 193 200 210 209 215 224 226 226 227 225 222 222 224 224 222 222 225 227 229 231 234 237 239 241 243 243 243 243 244 246 248 250 251 253 255 257 258 260 262 265 267 268 269 269 270 270 270 270 270 270
165 127 254 166 113 183 161 144 158 170 136 135 177 181 142 85 79 107 145 4 64 230 262 210 228 271 296 271 266 235 238 250 249 231 216 206 196 194 200 206 212 211 203 192 182 179 178 179 185 190 196 204 209 215 220 223 228 232 235 238 240 241 241 241 241 244 245 247 249 251 253 255 257 259 262 264 266 268 268 268 269 269 270 270 270 270
153 111 315 229 143 148 138 134 154 274 295 146 163 168 144 140 214 157 162 182 175 233 269 266 249 228 219 236 239 211 220 231 238 220 214 213 196 189 191 193 190 176 166 157 148 147 147 146 153 162 173 184 191 202 209 216 223 226 228 231 233 235 236 237 240 243 246 248 251 254 255 257 258 260 261 263 264 264 265 266 267 267 268 269 270 270
166 135 210 260 151 131 132 155 180 218 314 79 136 165 164 150 180 175 173 158 159 218 256 296 301 239 225 214 201 212 212 211 215 208 208 204 188 186 187 181 172 163 158 152 144 142 140 139 143 148 158 167 172 185 195 206 216 219 223 226 227 231 234 237 243 247 251 255 258 260 262 263 263 263 263 263 262 263 263 265 266 267 268 269 269 270
158 143 159 149 54 138 178 202 188 184 182 155 166 183 181 156 136 165 181 137 130 165 216 259 271 255 247 204 198 214 212 204 202 196 203 196 183 184 184 175 169 166 161 154 149 145 142 146 150 153 161 166 170 180 186 198 209 216 223 228 231 236 242 246 252 257 260 263 265 266 268 269 270 269 269 268 267 267 268 269 269 269 269 269 269 269
162 153 156 150 170 187 194 203 193 192 189 179 182 184 180 173 130 149 214 203 151 174 175 196 252 265 250 205 207 215 211 205 199 190 190 189 184 185 183 175 171 168 162 156 151 147 151 159 163 167 174 179 185 189 190 192 200 208 216 225 234 241 248 255 261 265 267 267 269 272 273 272 272 272 272 272 271 271 273 272 272 271 270 269 268 268
121 115 140 152 186 196 199 196 75 183 176 156 188 176 169 172 140 164 211 207 193 212 148 127 269 275 256 226 221 217 210 204 198 189 184 188 187 185 182 177 174 170 164 159 154 153 159 167 176 185 187 190 192 191 192 194 194 200 206 216 231 244 258 266 269 270 271 273 276 277 278 277 276 275 274 274 274 274 274 274 272 271 269 269 269 268
75 109 141 115 80 2 348 344 28 64 127 123 202 170 163 192 191 182 198 175 180 210 181 186 261 267 273 278 237 208 202 197 196 191 186 188 188 186 183 179 178 176 172 168 164 162 166 174 185 193 195 194 193 192 198 204 209 217 224 235 248 258 266 268 270 272 275 278 279 278 278 279 279 278 278 277 278 278 277 276 273 271 269 269 268 267
175 158 149 129 131 110 339 267 44 10 188 182 199 192 185 197 195 179 118 126 194 216 181 189 243 250 261 321 44 118 155 169 190 193 187 185 187 187 185 182 181 181 180 178 176 172 172 180 188 196 198 197 198 201 205 209 216 225 234 245 253 257 261 265 270 274 277 279 281 282 282 282 281 281 282 284 285 285 285 282 280 276 272 270 269 267
200 186 163 160 173 179 188 198 188 184 192 183 187 192 196 197 191 190 185 164 223 225 165 186 244 248 227 229 39 74 129 155 189 196 190 188 189 188 186 185 186 187 188 186 184 182 179 177 184 194 199 201 205 211 213 216 221 229 239 248 254 259 264 269 273 275 278 281 283 287 289 289 288 286 286 287 290 292 294 293 292 288 282 277 273 269
46 242 201 188 194 194 195 198 175 154 152 156 179 191 197 194 186 187 190 202 215 196 160 218 237 239 227 199 184 186 172 180 194 197 195 194 192 191 191 191 189 189 191 191 189 191 186 178 179 187 195 199 205 214 220 226 234 241 248 254 260 265 269 272 275 277 280 283 286 289 291 293 293 292 291 291 292 293 296 298 298 296 292 286 279 274
77 274 229 222 224 216 162 151 149 153 171 181 184 188 190 181 179 189 206 217 205 154 218 233 228 237 241 200 181 209 198 194 205 198 195 193 193 196 197 196 195 193 194 196 197 197 191 183 177 176 186 195 204 216 225 235 246 251 257 263 266 270 273 275 278 280 281 283 284 286 288 290 292 294 294 293 293 292 293 294 295 294 293 290 284 279
109 223 222 236 248 265 68 149 163 171 188 193 187 187 189 184 184 193 209 218 202 176 231 237 222 233 243 211 190 211 199 199 208 201 197 194 194 198 200 200 202 202 202 203 202 198 193 191 185 177 186 200 213 225 235 244 252 257 263 268 271 274 278 279 280 281 281 283 283 283 285 287 289 290 291 291 291 289 288 288 288 289 289 290 288 284
124 197 197 211 241 258 264 180 174 178 191 201 196 195 194 190 192 198 209 217 209 203 234 241 233 239 239 209 198 211 209 212 212 204 200 199 200 202 203 206 209 209 210 210 205 199 196 196 195 193 202 223 238 246 253 255 258 261 264 269 274 277 281 282 281 281 281 282 283 283 284 284 285 287 288 289 289 288 287 286 286 288 290 291 291 289
176 192 154 167 228 240 236 234 202 186 188 196 199 200 197 195 200 208 215 217 209 216 234 240 247 254 240 194 199 214 211 212 213 208 207 207 208 210 211 213 214 214 215 215 211 206 203 200 202 208 220 238 250 257 264 264 263 266 269 273 278 280 282 283 283 284 284 283 283 283 282 282 283 285 288 290 291 291 291 291 291 292 293 294 295 292
193 194 132 148 228 224 203 216 216 199 197 201 201 197 194 198 204 209 216 215 202 213 231 234 242 253 234 173 192 215 209 205 206 207 211 212 213 215 216 217 218 219 218 217 216 215 210 205 208 217 228 239 252 262 269 269 268 271 275 278 279 278 280 282 284 286 287 286 286 284 283 283 282 284 287 289 292 293 294 296 296 296 296 296 297 295
180 185 157 155 206 227 200 195 199 196 201 208 202 194 194 201 207 208 216 218 205 207 219 222 228 234 192 155 187 204 205 209 210 209 212 214 215 218 220 221 222 223 221 220 219 218 216 215 217 226 233 241 256 267 271 271 272 275 276 275 273 273 278 282 285 288 289 290 291 290 289 289 287 287 288 290 293 294 295 297 297 297 296 296 296 294
187 189 186 166 205 222 175 162 166 187 206 217 209 198 197 201 204 208 216 216 209 211 219 226 230 221 151 166 192 195 204 215 219 218 219 219 218 219 222 225 228 229 225 222 221 219 220 223 222 226 234 244 260 270 275 276 277 276 268 264 266 271 278 282 285 290 292 293 294 293 294 294 293 292 291 291 293 294 295 297 296 297 297 296 295 293
214 200 180 171 213 210 148 151 177 209 218 231 203 190 200 204 204 211 221 219 213 216 222 230 234 219 177 195 199 200 212 218 220 221 220 221 222 222 222 226 233 235 230 225 222 220 221 221 220 226 234 247 261 271 278 280 277 267 255 255 264 270 276 281 286 292 294 295 297 296 296 297 297 298 296 295 296 296 296 298 297 297 298 296 295 293
162 212 213 186 190 162 151 172 197 228 243 344 109 161 187 209 208 209 227 230 219 215 221 230 236 229 219 224 217 213 221 226 227 225 221 217 219 223 226 230 237 239 234 227 223 221 220 219 223 232 241 252 262 272 279 277 267 253 247 253 261 266 273 281 286 293 296 299 302 302 304 305 305 306 305 303 302 301 300 300 300 299 297 295 294 292
136 155 306 272 202 183 182 191 209 328 5 275 212 180 182 204 205 196 222 236 221 211 219 230 236 232 226 229 225 221 228 241 246 238 227 218 216 221 228 234 238 239 236 229 225 224 224 223 228 239 249 256 263 272 274 264 249 240 243 250 257 264 273 282 288 295 299 303 308 310 313 315 315 315 314 311 309 306 304 303 301 300 299 296 294 292
157 175 183 225 278 31 103 210 230 261 231 224 219 201 194 200 185 162 218 247 220 199 210 222 230 228 226 227 221 215 225 254 262 242 226 219 218 222 229 235 236 237 235 230 225 224 225 227 232 242 250 256 264 268 260 245 234 232 240 247 253 263 273 281 290 297 302 307 312 317 320 322 324 324 321 318 316 312 309 306 302 300 299 297 294 292
176 183 172 192 260 279 292 261 225 219 243 235 210 198 180 146 118 110 190 249 233 199 202 216 226 225 226 221 205 193 200 236 252 235 212 212 220 224 230 234 234 235 235 230 228 228 228 230 236 243 249 256 262 257 240 228 226 228 235 242 248 259 270 280 292 298 303 310 315 320 325 329 332 335 334 332 329 323 318 314 310 307 304 301 298 294
177 171 163 192 231 235 242 266 262 247 255 245 194 173 151 136 123 115 199 249 242 194 195 210 221 224 224 212 193 185 195 221 240 231 202 208 222 227 231 235 234 234 234 230 231 232 231 234 241 245 250 256 254 239 221 217 220 224 230 236 243 255 267 278 290 295 301 309 313 318 324 330 335 339 345 347 345 342 337 332 327 322 317 312 307 302
178 177 178 196 218 219 213 234 270 264 242 225 191 157 142 132 127 163 215 237 195 166 190 208 217 222 219 202 188 201 216 224 235 234 209 211 227 232 235 237 235 234 235 235 236 236 233 237 242 244 250 251 238 218 209 212 216 219 224 231 238 250 261 271 281 289 297 305 310 315 319 325 332 339 347 351 351 352 349 346 343 337 330 325 317 310
173 166 182 196 207 208 209 224 262 271 235 174 160 159 149 141 171 207 216 222 145 162 192 207 214 218 211 199 201 215 222 228 235 236 223 218 227 233 236 237 235 232 233 235 236 235 235 237 238 240 242 235 217 204 204 208 211 215 220 227 235 243 252 262 272 282 291 297 303 309 312 317 326 333 342 346 348 349 347 345 344 341 337 333 325 318
171 172 189 196 189 173 175 192 228 268 221 145 141 155 166 181 216 212 215 236 189 191 198 202 210 214 206 203 210 218 226 231 234 235 231 225 228 234 238 240 239 234 229 226 227 228 230 233 234 235 231 216 202 199 202 204 207 211 216 224 231 237 246 256 266 274 282 287 292 297 300 305 313 320 327 332 334 335 335 335 336 335 334 333 330 329
177 182 184 193 187 169 179 192 207 268 170 148 150 184 209 207 219 219 217 226 221 213 211 213 221 220 210 209 214 219 227 233 234 234 232 226 227 232 234 236 235 228 221 219 220 222 224 226 228 225 215 202 196 198 199 200 204 207 213 221 227 233 242 250 260 267 273 278 283 288 292 296 300 303 309 314 316 319 322 323 325 326 329 332 333 333
187 190 188 196 195 188 204 209 210 261 182 171 177 197 204 208 219 225 220 224 224 223 226 230 236 232 219 218 220 223 228 232 233 233 228 221 219 222 224 225 224 219 215 214 216 218 219 221 221 213 203 196 193 194 196 198 201 204 210 217 223 232 240 245 252 260 267 274 279 284 288 292 294 297 300 303 305 310 313 315 320 324 328 334 336 335
193 189 188 194 199 207 231 233 230 243 217 198 204 212 208 212 219 221 222 227 226 229 232 232 236 239 234 227 223 224 228 231 231 230 227 222 219 221 223 224 221 216 213 211 211 213 214 213 209 202 197 193 190 190 192 194 198 202 208 214 222 231 238 242 249 257 265 272 278 282 285 289 293 296 299 301 304 308 311 314 319 324 327 332 333 333
208 194 195 189 181 199 225 234 229 229 219 207 218 226 223 222 224 224 228 233 232 235 242 245 247 250 245 234 227 227 232 234 232 228 226 223 222 223 225 224 219 212 209 207 208 210 209 204 198 195 194 191 187 186 189 191 193 198 205 212 221 228 235 242 249 258 267 273 280 285 289 294 299 301 305 307 310 315 319 322 327 329 332 338 340 340
192 191 199 193 182 200 221 231 231 230 227 227 230 229 227 232 234 231 232 237 244 251 257 261 257 250 244 237 230 230 234 235 233 231 229 226 223 222 222 220 215 210 205 204 206 206 202 197 193 190 190 188 185 184 185 187 191 195 201 210 217 223 230 237 246 259 270 277 284 290 295 301 306 310 314 318 320 324 329 334 340 344 346 351 354 354
174 176 178 176 191 222 238 238 231 230 232 233 232 228 227 235 242 242 238 236 238 241 248 254 253 250 256 255 238 230 232 233 233 233 231 226 220 217 215 214 211 209 206 204 203 200 195 191 189 188 187 185 183 183 183 185 189 193 198 206 211 216 224 230 239 258 272 279 287 294 299 306 313 318 323 328 332 336 342 347 352 357 0 3 5 6
171 176 169 179 200 223 235 226 210 212 232 233 228 227 228 231 236 244 243 238 236 238 242 249 253 256 261 259 244 232 236 241 242 238 232 226 219 213 211 209 206 204 203 200 196 191 187 187 188 187 185 183 182 181 182 184 187 190 194 201 205 208 217 223 232 249 266 279 289 296 304 313 323 329 335 343 346 350 358 4 7 10 12 12 12 13
187 182 178 196 210 220 228 225 216 216 236 244 229 229 229 228 229 235 237 236 238 240 242 248 253 256 260 260 254 248 255 263 260 247 232 223 218 213 210 208 205 203 200 195 190 186 183 185 187 186 184 183 181 180 180 182 184 187 190 194 196 199 205 213 221 231 249 276 292 306 322 337 352 359 4 10 14 17 21 22 23 25 24 24 23 21